AEE3MK LGMK-LGAV

Flight info

Callsign AEE3MK
Flight time 0h 22m
Altitude 12000
Route VARIX
Aircraft A320/M-SDE3FGHIRWY/LB1

Departure

Time 2026-05-04 19:45
Airport Mykonos Island National Airport (LGMK)

Arrival

Time 2026-05-04 20:07
Airport Athens Eleftherios Venizelos International Airport (LGAV)
Time Latitude Longitude Altitude Speed Heading
2026-05-04 19:29 37.43489 25.34651 408 ft 0 kts 251°
2026-05-04 19:38 37.43493 25.34662 408 ft 4 kts 278°
2026-05-04 19:38 37.43485 25.34671 381 ft 4 kts 337°
2026-05-04 19:39 37.43467 25.34691 405 ft 4 kts 305°
2026-05-04 19:39 37.43452 25.34718 406 ft 4 kts 297°
2026-05-04 19:39 37.43446 25.34737 404 ft 1 kts 287°
2026-05-04 19:39 37.43445 25.34739 404 ft 0 kts 287°
2026-05-04 19:41 37.43445 25.34733 406 ft 2 kts 263°
2026-05-04 19:41 37.43421 25.34772 401 ft 10 kts 113°
2026-05-04 19:42 37.43351 25.34895 404 ft 22 kts 158°
2026-05-04 19:42 37.43200 25.34961 402 ft 24 kts 160°
2026-05-04 19:42 37.43036 25.35034 407 ft 25 kts 160°
2026-05-04 19:42 37.42863 25.35111 408 ft 27 kts 161°
2026-05-04 19:43 37.42744 25.35125 411 ft 12 kts 170°
2026-05-04 19:43 37.42753 25.35158 410 ft 6 kts 349°
2026-05-04 19:43 37.42785 25.35146 408 ft 0 kts 340°
2026-05-04 19:44 37.42870 25.35107 408 ft 43 kts 340°
2026-05-04 19:44 37.43365 25.34890 404 ft 105 kts 340°
2026-05-04 19:44 37.44192 25.34514 511 ft 138 kts 339°
2026-05-04 19:45 37.45076 25.34113 1097 ft 134 kts 340°
2026-05-04 19:45 37.45951 25.33733 1736 ft 134 kts 340°
2026-05-04 19:45 37.46731 25.33077 2244 ft 141 kts 312°
2026-05-04 19:45 37.47171 25.31886 2578 ft 165 kts 281°
2026-05-04 19:46 37.47335 25.30377 2995 ft 183 kts 282°
2026-05-04 19:46 37.47543 25.28670 3194 ft 211 kts 283°
2026-05-04 19:46 37.47791 25.26714 3472 ft 240 kts 283°
2026-05-04 19:46 37.48044 25.24565 4131 ft 255 kts 282°
2026-05-04 19:47 37.48271 25.22316 5024 ft 263 kts 277°
2026-05-04 19:47 37.47946 25.19994 5852 ft 280 kts 250°
2026-05-04 19:47 37.46811 25.17940 6691 ft 292 kts 231°
2026-05-04 19:47 37.45445 25.16030 7565 ft 294 kts 232°
2026-05-04 19:48 37.44065 25.14115 8468 ft 297 kts 232°
2026-05-04 19:48 37.42673 25.12183 9345 ft 299 kts 232°
2026-05-04 19:48 37.41284 25.10251 10175 ft 303 kts 232°
2026-05-04 19:48 37.39836 25.08225 10570 ft 322 kts 232°
2026-05-04 19:49 37.38492 25.05903 10898 ft 333 kts 248°
2026-05-04 19:49 37.37773 25.03143 11512 ft 332 kts 264°
2026-05-04 19:49 37.37611 25.00256 11972 ft 331 kts 277°
2026-05-04 19:49 37.37984 24.97423 12105 ft 326 kts 290°
2026-05-04 19:50 37.38683 24.94760 12142 ft 318 kts 292°
2026-05-04 19:50 37.39384 24.92134 12142 ft 316 kts 292°
2026-05-04 19:50 37.40087 24.89513 12142 ft 316 kts 292°
2026-05-04 19:50 37.40786 24.86891 12142 ft 316 kts 292°
2026-05-04 19:51 37.41483 24.84263 12132 ft 316 kts 292°
2026-05-04 19:51 37.42176 24.81640 12130 ft 316 kts 292°
2026-05-04 19:51 37.42866 24.79016 12127 ft 316 kts 292°
2026-05-04 19:51 37.43557 24.76392 12133 ft 316 kts 292°
2026-05-04 19:52 37.44249 24.73768 12140 ft 316 kts 292°
2026-05-04 19:52 37.44942 24.71139 12142 ft 316 kts 292°
2026-05-04 19:52 37.45635 24.68513 12143 ft 317 kts 292°
2026-05-04 19:52 37.46327 24.65882 12145 ft 317 kts 292°
2026-05-04 19:53 37.47019 24.63253 12149 ft 317 kts 292°
2026-05-04 19:53 37.47713 24.60617 12150 ft 317 kts 292°
2026-05-04 19:53 37.48404 24.57985 12151 ft 317 kts 292°
2026-05-04 19:53 37.49097 24.55338 12152 ft 317 kts 292°
2026-05-04 19:54 37.49784 24.52702 12153 ft 317 kts 292°
2026-05-04 19:54 37.50473 24.50062 12154 ft 317 kts 292°
2026-05-04 19:54 37.51162 24.47426 12154 ft 317 kts 292°
2026-05-04 19:54 37.51850 24.44789 12152 ft 317 kts 292°
2026-05-04 19:55 37.52537 24.42150 12153 ft 317 kts 292°
2026-05-04 19:55 37.53223 24.39510 12153 ft 317 kts 291°
2026-05-04 19:55 37.53907 24.36870 12136 ft 317 kts 291°
2026-05-04 19:55 37.54592 24.34227 12139 ft 317 kts 291°
2026-05-04 19:56 37.55270 24.31612 12136 ft 317 kts 291°
2026-05-04 19:56 37.55951 24.28999 11898 ft 310 kts 292°
2026-05-04 19:56 37.56661 24.26430 11639 ft 303 kts 293°
2026-05-04 19:56 37.57355 24.24017 11389 ft 289 kts 294°
2026-05-04 19:57 37.58045 24.21651 11150 ft 288 kts 294°
2026-05-04 19:57 37.58729 24.19304 10911 ft 283 kts 294°
2026-05-04 19:57 37.59402 24.16979 10582 ft 281 kts 294°
2026-05-04 19:57 37.60067 24.14665 10218 ft 281 kts 294°
2026-05-04 19:58 37.60730 24.12344 9833 ft 280 kts 294°
2026-05-04 19:58 37.61389 24.10037 9455 ft 279 kts 294°
2026-05-04 19:58 37.62050 24.07717 8950 ft 283 kts 294°
2026-05-04 19:58 37.62707 24.05399 8552 ft 275 kts 294°
2026-05-04 19:59 37.63334 24.03178 8210 ft 263 kts 294°
2026-05-04 19:59 37.63944 24.01024 7866 ft 260 kts 294°
2026-05-04 19:59 37.64555 23.98878 7532 ft 260 kts 294°
2026-05-04 19:59 37.65168 23.96723 7189 ft 261 kts 294°
2026-05-04 20:00 37.65782 23.94558 6831 ft 263 kts 294°
2026-05-04 20:00 37.66399 23.92377 6493 ft 264 kts 294°
2026-05-04 20:00 37.67019 23.90196 6126 ft 264 kts 294°
2026-05-04 20:00 37.67638 23.88007 5770 ft 264 kts 294°
2026-05-04 20:01 37.68254 23.85818 5421 ft 264 kts 294°
2026-05-04 20:01 37.68871 23.83628 5067 ft 265 kts 294°
2026-05-04 20:01 37.69520 23.81496 4708 ft 262 kts 301°
2026-05-04 20:01 37.70565 23.79644 4354 ft 257 kts 317°
2026-05-04 20:02 37.71973 23.78290 4002 ft 253 kts 334°
2026-05-04 20:02 37.73592 23.77538 3800 ft 246 kts 349°
2026-05-04 20:02 37.75276 23.77395 3600 ft 240 kts
2026-05-04 20:02 37.76888 23.77832 3399 ft 235 kts 19°
2026-05-04 20:03 37.78318 23.78780 3198 ft 231 kts 34°
2026-05-04 20:03 37.79589 23.79981 2992 ft 225 kts 35°
2026-05-04 20:03 37.80820 23.81145 2797 ft 219 kts 35°
2026-05-04 20:03 37.82028 23.82288 2592 ft 214 kts 35°
2026-05-04 20:04 37.83211 23.83407 2395 ft 211 kts 35°
2026-05-04 20:04 37.84380 23.84515 2189 ft 208 kts 35°
2026-05-04 20:04 37.85520 23.85595 2048 ft 200 kts 35°
2026-05-04 20:04 37.86617 23.86635 1776 ft 192 kts 36°
2026-05-04 20:05 37.87656 23.87621 1491 ft 182 kts 36°
2026-05-04 20:05 37.88610 23.88527 1299 ft 159 kts 36°
2026-05-04 20:05 37.89457 23.89333 1029 ft 146 kts 36°
2026-05-04 20:05 37.90247 23.90089 808 ft 140 kts 36°
2026-05-04 20:06 37.91011 23.90817 645 ft 138 kts 36°
2026-05-04 20:06 37.91778 23.91542 481 ft 138 kts 36°
2026-05-04 20:06 37.92547 23.92275 320 ft 133 kts 36°
2026-05-04 20:06 37.93188 23.92880 293 ft 95 kts 37°
2026-05-04 20:07 37.93578 23.93250 293 ft 45 kts 37°
2026-05-04 20:07 37.93798 23.93458 293 ft 44 kts 37°
2026-05-04 20:07 37.93955 23.93773 297 ft 34 kts 83°
2026-05-04 20:07 37.94083 23.94000 300 ft 32 kts 36°
2026-05-04 20:08 37.94274 23.94190 302 ft 36 kts 37°
2026-05-04 20:08 37.94478 23.94382 302 ft 37 kts 37°
2026-05-04 20:08 37.94641 23.94536 303 ft 26 kts 37°
2026-05-04 20:08 37.94660 23.94674 301 ft 15 kts 135°
2026-05-04 20:09 37.94583 23.94797 302 ft 22 kts 128°
2026-05-04 20:09 37.94469 23.94991 302 ft 32 kts 126°
2026-05-04 20:09 37.94330 23.95221 301 ft 34 kts 127°
2026-05-04 20:09 37.94228 23.95392 301 ft 22 kts 131°
2026-05-04 20:10 37.94194 23.95389 303 ft 5 kts 216°
2026-05-04 20:10 37.94159 23.95356 303 ft 8 kts 216°
2026-05-04 20:10 37.94140 23.95339 301 ft 2 kts 218°
2026-05-04 20:10 37.94137 23.95335 301 ft 0 kts 218°